Location: Aniagüita
(10.0946°N, 66.9708°W)
Time: 15:42:56
(UTC+00:00)

KORONAS-FOTON - Pass Details

Date: 30 June 2022
Orbit: 500 x 527 km, 82.4° (Epoch: 07 August)

Event Time Altitude Azimuth Distance (km) Brightness Sun altitude
Rises 23:32:25 0° 191° (S) 2,639 7.2 -9.7°
Reaches altitude 10° 23:34:34 10° 195° (SSW) 1,755 6.4 -10.2°
Maximum altitude 23:38:22 57° 275° (W) 621 4.5 -11.0°
Drops below altitude 10° 23:42:10 10° 354° (N) 1,763 7.0 -11.8°
Sets 23:44:21 0° 358° (N) 2,653 7.8 -12.3°
